Flag for Austria Weather past 2 weeks in Graz, Styria, Austria

Now
54 °F

Sunny.


Feels Like: 54 °F
Forecast: 50 / 69 °F
Wind: 1 mph from North

Location: Graz-Thalerhof-Flughafen

Current Time: May 7, 2015 at 7:41:18 AM

Latest Report: May 7, 2015 at 6:50 AM


Visibility: 10 mi

Pressure: 30.09 "Hg

Humidity: 88%

Dew point: 50 °F

Location of GrazLocation

Historic Weather in Graz — Graph

°F

Graz temperature yesterday

Maximum temperature yesterday: 77 °F (at 1:20 PM)
Minimum temperature yesterday: 57 °F (at 11:50 PM)
Average temperature yesterday: 67 °F

Past Weeks' High & Low Weather Summary

 TemperatureHumidityPressure
High81 °F (May 5, 2:50 PM)100% (Apr 25, 2:20 AM)30.21 "Hg (Apr 25, 2:20 AM)
Low37 °F (Apr 30, 4:50 AM)20% (Apr 22, 2:20 PM)29.53 "Hg (Apr 28, 5:50 AM)
Average58 °F68%29.89 "Hg
* Reported Apr 22 6:20 AM — May 7 6:20 AM, Graz, Weather by CustomWeather, © 2015

Note: Actual official high and low records may vary slightly from our data, if they occured in-between our weather recording intervals... More about our weather records

Advertising

Graz weather history for previous 24 hours

 ConditionsComfort  
Time TempWeatherWind HumidityBarometerVisibility
6:20 AM
Thu, May 7
54 °FClear.1 mph82%30.07 "Hg10 mi
5:50 AM54 °FClear.2 mph77%30.07 "Hg10 mi
5:20 AM52 °FClear.2 mph88%30.07 "Hg10 mi
4:50 AM54 °FClear.2 mph82%30.07 "Hg10 mi
4:20 AM55 °FClear.2 mph77%30.07 "Hg10 mi
3:50 AM54 °FPassing clouds.1 mph82%30.07 "HgN/A
3:20 AM54 °FPassing clouds.2 mph82%30.07 "HgN/A
2:50 AM55 °FClear.1 mph77%30.04 "Hg10 mi
2:20 AM55 °FPassing clouds.3 mph72%30.04 "HgN/A
1:50 AM57 °FClear.3 mph67%30.04 "Hg10 mi
1:20 AM55 °FPassing clouds.6 mph72%30.04 "HgN/A
12:50 AM57 °FClear.6 mph67%30.07 "Hg10 mi
11:50 PM
Wed, May 6
57 °FOvercast.7 mph67%30.04 "HgN/A
10:50 PM59 °FPassing clouds.9 mph59%30.04 "HgN/A
10:20 PM59 °FPassing clouds.12 mph59%30.01 "HgN/A
9:50 PM59 °FPassing clouds.14 mph59%29.98 "HgN/A
9:20 PM59 °FPassing clouds.16 mph59%29.98 "HgN/A
8:50 PM59 °FPartly sunny.17 mph59%29.98 "HgN/A
8:20 PM59 °FPartly sunny.15 mph59%29.95 "HgN/A
7:50 PM59 °FPartly sunny.14 mph63%29.95 "HgN/A
7:20 PM59 °FBroken clouds.17 mph63%29.92 "HgN/A
6:50 PM61 °FPartly sunny.18 mph59%29.92 "HgN/A
5:50 PM64 °FBroken clouds.18 mph60%29.89 "HgN/A
5:20 PM66 °FBroken clouds.21 mph60%29.86 "HgN/A
4:50 PM75 °FBroken clouds.10 mph65%29.83 "HgN/A
4:20 PM73 °FPartly sunny.8 mph74%29.80 "HgN/A
3:50 PM72 °FSprinkles. Partly sunny.9 mph73%29.80 "HgN/A
3:20 PM77 °FScattered clouds.10 mph51%29.80 "HgN/A
2:50 PM77 °FScattered clouds.12 mph54%29.80 "HgN/A
2:20 PM77 °FScattered clouds.9 mph54%29.80 "HgN/A
1:50 PM77 °FScattered clouds.5 mph54%29.83 "HgN/A
1:20 PM77 °FScattered clouds.8 mph47%29.83 "HgN/A
12:50 PM75 °FPassing clouds.7 mph50%29.83 "HgN/A
12:20 PM75 °FScattered clouds.8 mph50%29.86 "HgN/A
11:50 AM73 °FScattered clouds.7 mph57%29.86 "HgN/A
11:20 AM73 °FScattered clouds.9 mph61%29.86 "HgN/A
10:50 AM72 °FScattered clouds.9 mph61%29.89 "HgN/A
10:20 AM72 °FScattered clouds.6 mph61%29.89 "HgN/A
9:50 AM70 °FScattered clouds.6 mph60%29.89 "HgN/A
9:20 AM70 °FScattered clouds.3 mph60%29.89 "HgN/A
8:50 AM68 °FPassing clouds.3 mph69%29.89 "HgN/A
8:20 AM66 °FPassing clouds.3 mph73%29.89 "HgN/A
7:50 AM66 °FSunny.5 mph73%29.89 "Hg10 mi
7:20 AM63 °FPassing clouds.3 mph77%29.89 "HgN/A
Weather by CustomWeather, © 2015

See weather overviewHow to use our weather pages